Orbital Elements at Epoch 2459000.5 (2020-May-31.0) TDB
Reference: JPL 25 (heliocentric ecliptic J2000)
Element | Value | Uncertainty (1-sigma) | Units |
e | .2302880485101635 | 3.4221e-08 | |
a | 3.13046505617178 | 1.8307e-08 | au |
q | 2.409556367456722 | 1.0779e-07 | au |
i | 2.055991445607743 | 4.3834e-06 | deg |
node | 45.87514645671884 | 0.00013198 | deg |
peri | 66.82902838327841 | 0.00013246 | deg |
M | 302.7746099801203 | 1.1465e-05 | deg |
tp | 2459322.086625028726 (2021-Apr-17.58662503) | 6.581e-05 | TDB |
period | 2023.073760967347 5.54 | 1.7747e-05 4.859e-08 | d yr |
n | .1779470461956185 | 1.561e-09 | deg/d |
Q | 3.851373744886839 | 2.2523e-08 | au |
|
| | Orbit Determination Parameters
Additional Information
|